Hourly Data Report for October 06, 2014

All times are specified in Local Standard Time (LST). Add 1 hour to adjust for Daylight Saving Time where and when it is observed.

WINNIPEG A CS
MANITOBA

49°55'00.000" N
97°14'58.000" W
238.70 m
502S001
71849
XWG

Download Data

Hourly Data (October 2014)
Hourly Data Report for October 6, 2014
Temp Definition
°C
Dew Point Temp Definition
°C
Rel Hum Definition
%
Wind Dir Definition
10's deg

Wind Spd Definition
km/h
Visibility Definition
km
Stn Press Definition
kPa
Hmdx Definition


Wind Chill Definition


Weather Definition


TIME
00:00 3.1 -3.2 63 28 16   96.63     LegendNANA
01:00 3.3 -4.3 58 28 21   96.55     LegendNANA
02:00 3.8 -4.5 55 27 25   96.49     LegendNANA
03:00 4.4 -4.8 51 28 26   96.43     LegendNANA
04:00 4.3 -5.1 51 28 27   96.37     LegendNANA
05:00 4.1 -5.0 52 28 26   96.30     LegendNANA
06:00 2.9 -4.3 59 28 27   96.31     LegendNANA
07:00 1.6 -3.0 71 28 23   96.30     LegendNANA
08:00 3.3 -2.3 67 28 27   96.27     LegendNANA
09:00 5.5 -3.0 54 32 36   96.32     LegendNANA
10:00 4.8 -3.5 55 33 32   96.40     LegendNANA
11:00 4.8 -3.3 56 32 34   96.44     LegendNANA
12:00 4.4 -2.2 62 32 34   96.49     LegendNANA
13:00 4.1 -2.1 64 32 32   96.56     LegendNANA
14:00 4.3 -1.5 66 31 30   96.60     LegendNANA
15:00 4.8 -0.7 68 31 30   96.68     LegendNANA
16:00 4.6 -0.9 67 31 29   96.71     LegendNANA
17:00 4.1 -1.1 69 32 22   96.74     LegendNANA
18:00 3.7 -0.9 72 31 16   96.76     LegendNANA
19:00 2.5 -0.8 79 28 9   96.75     LegendNANA
20:00 2.5 -0.7 80 24 7   96.72     LegendNANA
21:00 3.0 -0.4 78 22 8   96.69     LegendNANA
22:00 3.2 -0.4 77 23 10   96.69     LegendNANA
23:00 3.2 0.6 83 25 15   96.67     LegendNANA

Notes on Data Quality.

Legend

  • E = Estimated
  • M = Missing
  • NA = Not Available
  • ‡ = Partner data that is not subject to review by the National Climate Archives
Date modified: